NR6G-5 Weather Reports


Display with metric or nautical units.
time (UTC)temp
F
wind
direction
speed
MPH
gust
MPH
rain 1hr
in
rain 24hr
in
rain mn
in
humidity
%
barometer
mb
20260506212316 75 0 0.0 6.0 0.00 0.00 0.00 47 1016.7
20260506211817 74 207 2.0 9.0 0.00 0.00 0.00 47 1016.8
20260506211317 74 245 4.0 11.0 0.00 0.00 0.00 47 1016.9
20260506210816 74 265 6.0 11.0 0.00 0.00 0.00 47 1016.9
20260506210319 73 333 2.0 8.0 0.00 0.00 0.00 49 1016.9
20260506205816 73 277 4.0 11.0 0.00 0.00 0.00 49 1017.0
20260506205316 74 275 3.0 11.0 0.00 0.00 0.00 48 1017.0
20260506204817 74 340 3.0 9.0 0.00 0.00 0.00 48 1017.0
20260506204316 73 0 0.0 9.0 0.00 0.00 0.00 50 1017.0
20260506203817 73 266 4.0 10.0 0.00 0.00 0.00 49 1017.1
20260506203317 73 301 5.0 10.0 0.00 0.00 0.00 49 1017.2
20260506202817 73 319 4.0 9.0 0.00 0.00 0.00 49 1017.2
20260506202318 73 316 3.0 9.0 0.00 0.00 0.00 49 1017.2
20260506201436 73 320 6.0 9.0 0.00 0.00 0.00 50 1017.4
20260506200936 73 13 3.0 9.0 0.00 0.00 0.00 50 1017.5
20260506195936 72 10 3.0 9.0 0.00 0.00 0.00 50 1017.7
20260506195436 72 17 6.0 9.0 0.00 0.00 0.00 50 1017.7
20260506194937 72 53 3.0 8.0 0.00 0.00 0.00 50 1017.7
20260506194436 72 355 4.0 9.0 0.00 0.00 0.00 51 1017.8
20260506193935 72 10 5.0 9.0 0.00 0.00 0.00 51 1017.9
20260506193436 71 343 5.0 8.0 0.00 0.00 0.00 52 1017.9
20260506192939 71 189 1.0 9.0 0.00 0.00 0.00 52 1018.1
20260506192436 71 296 2.0 9.0 0.00 0.00 0.00 54 1018.2
20260506191936 70 282 3.0 5.0 0.00 0.00 0.00 54 1018.3
20260506191436 70 80 2.0 8.0 0.00 0.00 0.00 54 1018.3
20260506190935 70 157 3.0 8.0 0.00 0.00 0.00 55 1018.4
20260506190253 69 192 4.0 7.0 0.00 0.00 0.00 55 1018.6
20260506185754 69 244 3.0 8.0 0.00 0.00 0.00 56 1018.6
20260506185253 68 223 3.0 9.0 0.00 0.00 0.00 56 1018.6
20260506184753 68 230 3.0 9.0 0.00 0.00 0.00 56 1018.7
20260506184253 68 251 3.0 12.0 0.00 0.00 0.00 58 1018.8
20260506183755 68 241 7.0 12.0 0.00 0.00 0.00 60 1018.7
20260506183253 68 251 2.0 8.0 0.00 0.00 0.00 62 1018.8
20260506182253 67 211 6.0 8.0 0.00 0.00 0.00 62 1019.0
20260506180430 66 246 5.0 9.0 0.00 0.00 0.00 65 1019.2
20260506175931 66 288 2.0 9.0 0.00 0.00 0.00 64 1019.2
20260506175430 66 260 3.0 9.0 0.00 0.00 0.00 66 1019.2
20260506174930 66 223 5.0 9.0 0.00 0.00 0.00 66 1019.3
20260506174430 66 207 2.0 8.0 0.00 0.00 0.00 68 1019.3
20260506173931 65 183 3.0 9.0 0.00 0.00 0.00 68 1019.4
20260506173430 65 207 6.0 9.0 0.00 0.00 0.00 68 1019.4
20260506172930 65 211 3.0 7.0 0.00 0.00 0.00 68 1019.4
20260506172430 65 234 3.0 9.0 0.00 0.00 0.00 68 1019.4
20260506171930 64 167 5.0 9.0 0.00 0.00 0.00 70 1019.5
20260506171430 64 194 1.0 8.0 0.00 0.00 0.00 70 1019.5
20260506170932 63 200 2.0 8.0 0.00 0.00 0.00 70 1019.6
20260506170430 63 196 5.0 8.0 0.00 0.00 0.00 70 1019.6
20260506165930 63 197 4.0 8.0 0.00 0.00 0.00 71 1019.6
20260506165431 63 196 4.0 9.0 0.00 0.00 0.00 72 1019.6
20260506164930 63 201 6.0 9.0 0.00 0.00 0.00 72 1019.6
20260506164432 62 202 3.0 10.0 0.00 0.00 0.00 72 1019.6
20260506163931 62 195 6.0 10.0 0.00 0.00 0.00 73 1019.6
20260506163430 62 166 2.0 7.0 0.00 0.00 0.00 72 1019.5
20260506162931 62 191 2.0 5.0 0.00 0.00 0.00 73 1019.6
20260506162430 62 191 2.0 12.0 0.00 0.00 0.00 73 1019.6
20260506161930 62 185 4.0 12.0 0.00 0.00 0.00 72 1019.6
20260506161430 62 203 6.0 11.0 0.00 0.00 0.00 72 1019.6
20260506160916 62 149 3.0 8.0 0.00 0.00 0.00 72 1019.6
20260506155915 61 160 4.0 8.0 0.00 0.01 0.00 73 1019.7
20260506155418 61 150 4.0 8.0 0.00 0.01 0.00 74 1019.7
20260506154917 61 185 4.0 8.0 0.00 0.02 0.00 74 1019.7
20260506154415 60 162 3.0 8.0 0.00 0.03 0.00 74 1019.8
20260506153915 60 169 4.0 8.0 0.00 0.03 0.00 75 1019.8
20260506153417 60 140 3.0 9.0 0.00 0.03 0.00 75 1019.8
20260506152916 59 162 1.0 9.0 0.00 0.03 0.00 75 1019.8
20260506152415 59 150 3.0 8.0 0.00 0.03 0.00 75 1019.8
20260506151915 59 152 3.0 6.0 0.00 0.04 0.00 76 1019.8
20260506151417 59 184 4.0 6.0 0.00 0.04 0.00 77 1019.7
20260506150917 59 185 3.0 6.0 0.00 0.04 0.00 76 1019.7
20260506150417 58 178 2.0 5.0 0.00 0.04 0.00 76 1019.7
20260506145917 58 163 2.0 5.0 0.00 0.04 0.00 76 1019.6
20260506145029 58 0 0.0 4.0 0.00 0.04 0.00 76 1019.7
20260506144528 58 152 1.0 4.0 0.00 0.04 0.00 76 1019.6
20260506144030 58 0 0.0 3.0 0.00 0.04 0.00 77 1019.6
20260506143530 58 0 0.0 2.0 0.00 0.04 0.00 78 1019.5
20260506143028 58 0 0.0 2.0 0.00 0.04 0.00 79 1019.5
20260506142530 57 0 0.0 0.0 0.00 0.04 0.00 80 1019.5
20260506142028 57 0 0.0 1.0 0.00 0.04 0.00 81 1019.5
20260506141528 56 0 0.0 1.0 0.00 0.04 0.00 83 1019.4
20260506141028 56 0 0.0 2.0 0.00 0.04 0.00 83 1019.4
20260506140528 56 0 0.0 3.0 0.00 0.04 0.00 83 1019.3
20260506140030 55 0 0.0 3.0 0.00 0.04 0.00 85 1019.3
20260506135528 54 0 0.0 3.0 0.00 0.04 0.00 85 1019.2
20260506135029 54 0 0.0 3.0 0.00 0.04 0.00 87 1019.1
20260506134528 53 0 0.0 4.0 0.00 0.04 0.00 88 1019.0
20260506134028 53 125 1.0 4.0 0.00 0.04 0.00 89 1018.9
20260506133528 52 0 0.0 4.0 0.00 0.04 0.00 89 1018.9
20260506133029 52 141 1.0 4.0 0.00 0.04 0.00 90 1018.8
20260506132528 51 131 1.0 3.0 0.00 0.04 0.00 91 1018.8
20260506132029 51 126 1.0 5.0 0.00 0.04 0.00 92 1018.7
20260506131528 51 133 1.0 5.0 0.00 0.04 0.00 92 1018.8
20260506131028 50 0 0.0 2.0 0.00 0.04 0.00 91 1018.8
20260506130528 51 0 0.0 3.0 0.00 0.04 0.00 91 1018.7
20260506130028 51 0 0.0 4.0 0.00 0.04 0.00 91 1018.6
20260506125528 51 100 1.0 4.0 0.00 0.04 0.00 91 1018.6
20260506125028 51 96 3.0 4.0 0.00 0.04 0.00 92 1018.5
20260506124528 51 103 2.0 4.0 0.00 0.04 0.00 91 1018.5
20260506124030 51 105 2.0 4.0 0.00 0.04 0.00 90 1018.4
20260506123529 51 0 0.0 4.0 0.00 0.04 0.00 91 1018.5
20260506123028 51 138 1.0 5.0 0.00 0.04 0.00 91 1018.4
20260506122528 51 144 2.0 5.0 0.00 0.04 0.00 91 1018.4
20260506122030 52 153 3.0 6.0 0.00 0.04 0.00 91 1018.4
20260506121528 52 147 3.0 7.0 0.00 0.04 0.00 91 1018.2
20260506121029 52 136 3.0 7.0 0.00 0.04 0.00 91 1018.2
20260506120528 52 132 3.0 5.0 0.00 0.04 0.00 92 1018.1
20260506120030 52 142 2.0 4.0 0.00 0.04 0.00 91 1018.2
20260506115121 52 133 2.0 5.0 0.00 0.04 0.00 91 1018.2
20260506114619 52 122 1.0 6.0 0.00 0.04 0.00 91 1018.2
20260506114120 51 138 2.0 6.0 0.00 0.04 0.00 91 1018.1
20260506113621 51 195 1.0 3.0 0.00 0.04 0.00 87 1018.1
20260506113120 52 0 0.0 3.0 0.00 0.04 0.00 87 1018.1
20260506112622 52 0 0.0 3.0 0.00 0.04 0.00 89 1018.0
20260506112121 52 0 0.0 2.0 0.00 0.04 0.00 88 1018.0
20260506111619 53 0 0.0 0.0 0.00 0.04 0.00 87 1018.0
20260506111119 54 0 0.0 2.0 0.00 0.04 0.00 86 1018.0
20260506110621 54 0 0.0 4.0 0.00 0.04 0.00 88 1017.9
20260506110121 54 261 1.0 4.0 0.00 0.04 0.00 88 1017.8
20260506105620 54 0 0.0 2.0 0.00 0.04 0.00 89 1017.8
20260506105119 54 0 0.0 2.0 0.00 0.04 0.00 89 1017.7
20260506104620 54 0 0.0 1.0 0.00 0.04 0.00 89 1017.8
20260506104119 54 0 0.0 0.0 0.00 0.04 0.00 89 1017.7
20260506103139 54 0 0.0 0.0 0.00 0.04 0.00 89 1017.7
20260506102639 54 0 0.0 0.0 0.00 0.04 0.00 89 1017.7
20260506102138 54 0 0.0 0.0 0.00 0.04 0.00 89 1017.6
20260506101642 54 0 0.0 0.0 0.00 0.04 0.00 89 1017.6
20260506101143 54 0 0.0 0.0 0.00 0.04 0.00 89 1017.5
20260506100644 53 0 0.0 0.0 0.00 0.04 0.00 90 1017.5
20260506100142 53 0 0.0 1.0 0.00 0.04 0.00 89 1017.4
20260506095643 53 0 0.0 2.0 0.00 0.04 0.00 89 1017.3
20260506095141 53 0 0.0 2.0 0.00 0.04 0.00 90 1017.3
20260506094639 53 0 0.0 3.0 0.00 0.04 0.00 90 1017.4
20260506094139 53 256 1.0 3.0 0.00 0.04 0.00 89 1017.4
20260506093638 53 256 1.0 2.0 0.00 0.04 0.00 89 1017.3
20260506093138 53 0 0.0 2.0 0.00 0.04 0.00 88 1017.3
20260506092640 54 0 0.0 3.0 0.00 0.04 0.00 88 1017.2
20260506092139 54 0 0.0 3.0 0.00 0.04 0.00 87 1017.2
20260506091140 55 0 0.0 4.0 0.00 0.04 0.00 84 1017.2
20260506090639 56 248 1.0 5.0 0.00 0.04 0.00 82 1017.2
20260506090138 56 66 3.0 5.0 0.00 0.04 0.00 81 1017.2
20260506085641 57 69 2.0 5.0 0.00 0.04 0.00 80 1017.2
20260506085140 57 74 2.0 4.0 0.00 0.04 0.00 80 1017.2
20260506084638 57 77 3.0 5.0 0.00 0.04 0.00 81 1017.2
20260506084138 57 74 3.0 5.0 0.00 0.04 0.00 81 1017.2
20260506083639 57 77 3.0 5.0 0.00 0.04 0.00 81 1017.2
20260506083138 57 75 3.0 7.0 0.00 0.04 0.00 81 1017.1
20260506082638 57 73 4.0 8.0 0.00 0.04 0.00 81 1017.1
20260506082139 56 68 4.0 8.0 0.00 0.04 0.00 82 1017.1
20260506081638 56 69 3.0 7.0 0.00 0.04 0.00 82 1017.1
20260506081138 56 67 4.0 7.0 0.00 0.04 0.00 82 1017.2
20260506080638 56 66 4.0 6.0 0.00 0.04 0.00 82 1017.1
20260506073156 55 72 4.0 5.0 0.00 0.04 0.00 85 1016.9
20260506072655 55 72 3.0 5.0 0.00 0.04 0.00 85 1016.8
20260506072155 54 72 3.0 6.0 0.00 0.04 0.00 86 1016.8
20260506071658 54 69 4.0 7.0 0.00 0.04 0.00 85 1016.8
20260506071156 54 68 4.0 7.0 0.00 0.04 0.00 85 1016.8
20260506070654 54 69 4.0 8.0 0.00 0.04 0.00 85 1016.6
20260506070156 54 70 5.0 8.0 0.00 0.04 0.00 86 1016.7
20260506061029 54 71 3.0 5.0 0.00 0.04 0.04 87 1016.2
20260506060527 54 69 4.0 5.0 0.00 0.04 0.04 87 1016.2
20260506041743 56 70 3.0 6.0 0.00 0.04 0.04 84 1015.3
20260506041243 57 66 4.0 6.0 0.00 0.04 0.04 84 1015.3
20260506040743 57 69 4.0 5.0 0.00 0.04 0.04 84 1015.2
20260506040244 57 71 3.0 6.0 0.00 0.04 0.04 85 1015.2
20260506035743 57 65 4.0 6.0 0.00 0.04 0.04 85 1015.0
20260506035243 57 64 3.0 5.0 0.00 0.04 0.04 86 1015.1
20260506034743 57 66 3.0 5.0 0.00 0.04 0.04 86 1015.0
20260506034244 57 64 3.0 5.0 0.00 0.04 0.04 85 1015.0
20260506033743 56 66 2.0 4.0 0.00 0.04 0.04 86 1014.8
20260506033245 56 67 3.0 6.0 0.00 0.04 0.04 85 1014.9
20260506032743 57 63 4.0 6.0 0.00 0.04 0.04 85 1014.8
20260506032244 57 62 5.0 6.0 0.00 0.04 0.04 84 1014.8
20260506031743 57 66 3.0 4.0 0.00 0.04 0.04 83 1014.7
20260506031244 58 75 2.0 3.0 0.00 0.04 0.04 82 1014.6
20260506030312 59 0 0.0 0.0 0.00 0.04 0.04 79 1014.4
20260506025811 60 0 0.0 0.0 0.00 0.04 0.04 78 1014.4
20260506025311 60 0 0.0 0.0 0.00 0.04 0.04 78 1014.3
20260506024810 60 0 0.0 2.0 0.00 0.04 0.04 78 1014.3
20260506024310 60 0 0.0 2.0 0.00 0.04 0.04 77 1014.2
20260506023811 60 0 0.0 3.0 0.00 0.04 0.04 76 1014.2
20260506023310 61 0 0.0 4.0 0.00 0.04 0.04 76 1014.2
20260506022812 61 85 2.0 4.0 0.00 0.04 0.04 75 1014.2
20260506021811 61 92 3.0 4.0 0.00 0.04 0.04 75 1014.1
20260506021311 61 97 1.0 4.0 0.00 0.04 0.04 75 1014.1
20260506020811 61 105 1.0 4.0 0.00 0.04 0.04 74 1014.0
20260506020310 61 100 2.0 4.0 0.00 0.04 0.04 74 1013.9
20260506015810 62 94 2.0 4.0 0.00 0.04 0.04 75 1013.9
20260506015311 62 110 1.0 3.0 0.00 0.04 0.04 75 1013.9
20260506014811 62 0 0.0 3.0 0.00 0.04 0.04 74 1013.9
20260506014312 62 0 0.0 3.0 0.00 0.04 0.04 74 1013.9
20260506013811 62 0 0.0 3.0 0.00 0.04 0.04 74 1013.8
20260506013311 61 0 0.0 4.0 0.00 0.04 0.04 74 1013.9
20260506012310 61 94 3.0 6.0 0.00 0.04 0.04 74 1014.0
20260506011810 61 94 3.0 6.0 0.00 0.04 0.04 74 1014.0
20260506011310 61 100 3.0 7.0 0.00 0.04 0.04 76 1014.0
20260506010810 61 86 4.0 8.0 0.00 0.04 0.04 74 1014.0
20260506010310 61 92 4.0 8.0 0.00 0.04 0.04 75 1014.0
20260506005810 62 93 5.0 8.0 0.00 0.04 0.04 74 1014.0
20260506004810 62 94 4.0 7.0 0.00 0.04 0.04 74 1013.9
20260506004311 62 124 2.0 9.0 0.00 0.04 0.04 73 1013.9
20260506003811 62 97 5.0 9.0 0.00 0.04 0.04 72 1013.9
20260506003310 63 104 3.0 6.0 0.00 0.04 0.04 70 1014.0
20260506002810 63 121 2.0 5.0 0.00 0.04 0.04 68 1014.0
20260506002311 63 138 1.0 4.0 0.00 0.04 0.04 68 1013.9
20260506001811 63 122 2.0 4.0 0.00 0.04 0.04 68 1014.0
20260506000727 63 138 3.0 9.0 0.00 0.04 0.04 68 1013.9
20260506000227 63 151 5.0 9.0 0.00 0.04 0.04 68 1013.8
20260505235725 63 149 5.0 8.0 0.00 0.04 0.04 69 1013.7
20260505235224 62 147 4.0 8.0 0.00 0.04 0.04 71 1013.7
20260505234724 62 150 3.0 7.0 0.00 0.04 0.04 73 1013.8
20260505234225 61 158 4.0 7.0 0.00 0.04 0.04 74 1013.9
20260505233724 61 144 3.0 7.0 0.00 0.04 0.04 73 1013.9
20260505233224 61 169 4.0 7.0 0.00 0.04 0.04 75 1013.9
20260505232725 61 157 4.0 7.0 0.00 0.04 0.04 75 1014.0
20260505232224 61 144 3.0 8.0 0.00 0.04 0.04 75 1014.0
20260505231725 61 145 4.0 8.0 0.00 0.04 0.04 74 1014.0
20260505231224 61 155 5.0 8.0 0.00 0.04 0.04 77 1014.0
20260505230724 61 156 5.0 8.0 0.00 0.04 0.04 75 1014.1
20260505230224 61 177 5.0 9.0 0.00 0.04 0.04 75 1014.2
20260505225724 61 180 5.0 11.0 0.00 0.04 0.04 76 1014.2
20260505225225 61 163 6.0 11.0 0.00 0.04 0.04 77 1014.2
20260505224725 61 160 6.0 11.0 0.00 0.04 0.04 76 1014.4
20260505224225 61 153 6.0 12.0 0.00 0.04 0.04 77 1014.4
20260505223724 61 173 7.0 13.0 0.00 0.04 0.04 79 1014.4
20260505223228 60 167 8.0 13.0 0.00 0.04 0.04 79 1014.4
20260505222724 60 168 7.0 13.0 0.00 0.04 0.04 79 1014.5
20260505222228 60 176 9.0 13.0 0.00 0.04 0.04 80 1014.5
20260505221724 60 177 8.0 12.0 0.00 0.04 0.04 79 1014.5
20260505221227 60 183 6.0 12.0 0.00 0.04 0.04 80 1014.5
20260505220725 60 165 8.0 12.0 0.00 0.04 0.04 80 1014.5
20260505220226 61 182 7.0 12.0 0.00 0.04 0.04 80 1014.6
20260505215726 61 197 9.0 12.0 0.00 0.04 0.04 77 1014.5
20260505215224 61 181 8.0 12.0 0.00 0.04 0.04 81 1014.6
20260505214725 61 186 9.0 14.0 0.00 0.04 0.04 79 1014.6
20260505214224 61 181 9.0 14.0 0.00 0.04 0.04 80 1014.8
20260505213725 61 180 9.0 14.0 0.00 0.04 0.04 79 1014.8
20260505213229 61 185 9.0 14.0 0.00 0.04 0.04 81 1014.9
20260505212724 60 193 8.0 12.0 0.00 0.04 0.04 83 1014.9